Regional Weather Roundup
Issued by NWS

Home | Current Version | Previous Version | Graphics & Text | Print | Product List | Glossary Off
Versions: 1 2 3 4 5 6 7 8 9 10 11 12 13 14 15 16 17 18 19 20 21 22 23 24 25 26 27 28 29 30 31 32 33 34 35 36 37 38 39 40 41 42 43 44 45 46 47 48 49 50

000
ASUS43 KDMX 241206
RWRIA

WEATHER ROUNDUP FOR IOWA
NATIONAL WEATHER SERVICE DES MOINES IA
600 AM CST FRI FEB 24 2017

NOTE: "FAIR" INDICATES FEW OR NO CLOUDS BELOW 12,000 FEET WITH NO
SIGNIFICANT WEATHER AND/OR OBSTRUCTIONS TO VISIBILITY.

* - THESE STATIONS ARE NOT NWS STATIONS...THUS NOT UNDER NWS
QUALITY CONTROL.  THEY ALSO DO NOT REPORT WEATHER SUCH
AS PRECIPITATION OR FOG.

IAZ001>003-012>014-020>022-031>034-043>046-241300-
   NORTHWEST IOWA

CITY           SKY/WX    TMP DP  RH WIND       PRES   REMARKS
CARROLL *      MIX PCPN  28  30 100 N23G31    29.62R WCI  14
CHEROKEE *     LGT SNOW  25  24  94 N21G29    29.74R WCI  11
DENISON *      HVY RAIN  28  27  93 N17G35    29.65R WCI  16
LE MARS *      MIX PCPN  25  23  93 N18G31    29.79R VSB 3/4 WCI  11
ORANGE CITY *  CLOUDY    25  21  86 N14G26    29.77R WCI  13
SHELDON *      MIX PCPN  23  23 100 N28G35    29.76R WCI   6
SIOUX CITY     CLOUDY    27  23  85 N24G35    29.79R FOG     WCI  12
6HR MIN TEMP:  27; 6HR MAX TEMP:  32; 6HR PCP:  0.06;

SPENCER        CLOUDY    25  21  85 N26G36    29.74R FOG     WCI   9
6HR MIN TEMP:  25; 6HR MAX TEMP:  28; 6HR PCP:  0.03;

STORM LAKE *   LGT SNOW  25  25 100 N25G36    29.67R WCI   9
$$

IAZ055>058-069>071-079>083-090>094-241300-
   SOUTHWEST IOWA

CITY           SKY/WX    TMP DP  RH WIND       PRES   REMARKS
ATLANTIC *     MIX PCPN  32  30  93 N20G29    29.61R WCI  20
CLARINDA *     CLOUDY    36  34  93 N15       29.62R WCI  26
COUNCIL BLFS * LGT SNOW  30  30 100 N14G23    29.66R WCI  20
CRESTON *      MIX PCPN  34  34 100 N15       29.57R WCI  24
HARLAN  *      RAIN      28  28 100 N24       29.66R WCI  14
LAMONI         MIX PCPN  35  34  96 N8        29.54R FOG     WCI  29
6HR MIN TEMP:  35; 6HR MAX TEMP:  44; 6HR PCP:  0.02;

RED OAK *      MIX PCPN  32  32 100 N18G25    29.62R WCI  20
SHENANDOAH *   MIX PCPN  34  32  93 N14G23    29.63R WCI  24
$$

IAZ047>049-059>061-072>074-084-241300-
   CENTRAL IOWA

CITY           SKY/WX    TMP DP  RH WIND       PRES   REMARKS
AMES           CLOUDY    32  32 100 N22G32    29.54R FOG     WCI  19
6HR MIN TEMP:  32; 6HR MAX TEMP:  36; 6HR PCP:  0.14;

ANKENY *       CLOUDY    34  32  93 NE18G28   29.54R FOG     WCI  23
BOONE *        MIX PCPN  30  32 100 MISG      29.54R
CHARITON *     MIX PCPN  34  34 100 N12G21    29.50R WCI  25
DES MOINES     DRIZZLE   35  32  88 NE20G28   29.54R FOG     WCI  24
6HR MIN TEMP:  35; 6HR MAX TEMP:  41; 6HR PCP:  0.10;

GRINNELL*      CLOUDY    33  32  96 NE23G30   29.50R WCI  20
KNOXVILLE *    MIX PCPN  34  32  93 NE15G22   29.49R WCI  24
MARSHALLTOWN   CLOUDY    33  32  96 NE28G35   29.50F FOG     WCI  20
6HR MIN TEMP:  33; 6HR MAX TEMP:  36; 6HR PCP:  0.05;

NEWTON *       CLOUDY    34  32  93 NE20G30   29.50R WCI  22
PELLA *        DRIZZLE   34  33  96 NE10G18   29.51R WCI  26
PERRY *        DRIZZLE   32  31  94 N17G24    29.59R WCI  21
$$

IAZ004>006-015-016-023>025-035-036-241300-
   NORTH CENTRAL IOWA

CITY           SKY/WX    TMP DP  RH WIND       PRES   REMARKS
ALGONA *       CLOUDY    27  27 100 N25G36    29.68R FOG     WCI  11
CLARION *      FOG       28  30 100 N28G35    29.59R VSB 1/2 WCI  13
ESTHERVILLE    CLOUDY    23  21  92 N29G35    29.73S FOG     WCI   6
6HR MIN TEMP:  23; 6HR MAX TEMP:  26;

FORT DODGE *   CLOUDY    28  23  80 N16G24    29.63R WCI  17
MASON CITY     MIX PCPN  28  27  96 N28       29.62F FOG     WCI  13
6HR MIN TEMP:  28; 6HR MAX TEMP:  31; 6HR PCP:  0.26;

FOREST CITY *  MIX PCPN  28  28 100 N22G37    29.64S WCI  15
WEBSTER CITY * CLOUDY    30  28  93 N26G33    29.56R WCI  16
IOWA FALLS *   CLOUDY    31  29  91 N25G33    29.55F WCI  17
$$

IAZ007>011-017>019-026>030-037>042-050>054-066-241300-
   NORTHEAST IOWA

CITY           SKY/WX    TMP DP  RH WIND       PRES   REMARKS
CEDAR RAPIDS   LGT RAIN  34  34 100 NE22G30   29.46F FOG     WCI  22
6HR MIN TEMP:  34; 6HR MAX TEMP:  37; 6HR PCP:  0.01;

CHARLES CITY * CLOUDY    30  30 100 NE25      29.58F FOG     WCI  16
CLINTON *      CLOUDY    37  36  96 NE20      29.46F WCI  27
DECORAH *      CLOUDY    30  30 100 N18G24    29.59F WCI  18
DUBUQUE        MIX PCPN  32  32 100 NE20G29   29.50R FOG     WCI  20
6HR MIN TEMP:  32; 6HR MAX TEMP:  34; 6HR PCP:  0.12;

MONTICELLO *   CLOUDY    34  32  93 NE16G23   29.50S FOG     WCI  23
OELWEIN *      CLOUDY    32  32 100 NE26G33   29.52F WCI  18
WATERLOO       CLOUDY    33  29  85 NE20G39   29.54F WCI  21
6HR MIN TEMP:  33; 6HR MAX TEMP:  35; 6HR PCP:  0.23;

$$

IAZ064-065-067-068-078-241300-
   EAST CENTRAL IOWA

CITY           SKY/WX    TMP DP  RH WIND       PRES   REMARKS
DAVENPORT      CLOUDY    38  36  92 NE13      29.45F WCI  30
6HR MIN TEMP:  37; 6HR MAX TEMP:  38; 6HR PCP: TRACE;

IOWA CITY      MIX PCPN  37  35  92 NE13      29.48R FOG     WCI  29
6HR MIN TEMP:  37; 6HR MAX TEMP:  39; 6HR PCP: TRACE;

MUSCATINE *    CLOUDY    39  37  93 NE10G17   29.44F WCI  32
QUAD CITIES    CLOUDY    41  37  86 NE12      29.44F
6HR MIN TEMP:  40; 6HR MAX TEMP:  42; 6HR PCP:  0.01;

$$

IAZ062-063-075>077-085>089-095>099-241300-
   SOUTHEAST IOWA

CITY           SKY/WX    TMP DP  RH WIND       PRES   REMARKS
BURLINGTON     CLOUDY    42  42 100 N9        29.40R FOG
6HR MIN TEMP:  42; 6HR MAX TEMP:  46;

FAIRFIELD *    CLOUDY    37  37 100 N13G22    29.43F FOG     WCI  29
KEOKUK *       CLOUDY    43  43 100 N8        29.40F FOG
OTTUMWA        CLOUDY    37  36  96 NE14      29.46R FOG     WCI  28
6HR MIN TEMP:  37; 6HR MAX TEMP:  41;

WASHINGTON *   CLOUDY    37  37 100 NE16G23   29.45F FOG     WCI  28
$$

ABBREVIATIONS USED IN REMARKS
   TC - TEMPERATURES IN CELSIUS
  WCI - WIND CHILL INDEX
   HX - HEAT INDEX
  VSB - VISIBILITY
$$





USA.gov is the U.S. government's official web portal to all federal, state and local government web resources and services.